Tracking 19149 objects as of 22-Apr-2018
HD Live streaming from Space Station
objects crossing your sky now

COSMOS 1515

Track COSMOS 1515 now!
10-day predictions
COSMOS 1515 is classified as:


NORAD ID: 14551
Int'l Code: 1983-122A
Perigee: 516.6 km
Apogee: 524.7 km
Inclination: 82.5 °
Period: 94.9 minutes
Semi major axis: 6891 km
RCS: 7.718 m2 (large)
Launch date: December 15, 1983
Source: Commonwealth of Independent States (former USSR) (CIS)
Launch site: PLESETSK MISSILE AND SPACE COMPLEX (PKMTR)
aabbcc
Your satellite tracking list
Your tracking list is empty




NASA's NSSDC Master Catalog

Two Line Element Set (TLE):
1 14551U 83122A   18111.82090463  .00001029  00000-0  49838-4 0  9994
2 14551  82.5009 229.4322 0005921 311.0996 163.7967 15.17460977616630
Source of the keplerian elements: AFSPC